| time (UTC) | temp F | wind direction | speed knots | gust knots | rain 1hr in | rain 24hr in | rain mn in | humidity % | barometer mb |
| 20260504081451 | 46 | 316 | 1.7 | 4.3 | 0.00 | 0.00 | 0.00 | 64 | 1014.8 |
| 20260504045956 | 49 | 316 | 1.7 | 4.3 | 0.00 | 0.00 | 0.00 | 54 | 1014.7 |
| 20260504042953 | 49 | 300 | 1.7 | 4.3 | 0.00 | 0.00 | 0.00 | 54 | 1014.8 |
| 20260504041453 | 49 | 304 | 1.7 | 4.3 | 0.00 | 0.00 | 0.00 | 53 | 1014.5 |
| 20260504035956 | 49 | 347 | 2.6 | 4.3 | 0.00 | 0.00 | 0.00 | 54 | 1014.5 |
| 20260504032953 | 50 | 302 | 1.7 | 4.3 | 0.00 | 0.00 | 0.00 | 53 | 1014.4 |
| 20260504031452 | 50 | 302 | 1.7 | 3.5 | 0.00 | 0.00 | 0.00 | 52 | 1014.3 |
| 20260504024452 | 50 | 304 | 0.9 | 2.6 | 0.00 | 0.00 | 0.00 | 52 | 1014.2 |
| 20260504022952 | 51 | 310 | 0.9 | 3.5 | 0.00 | 0.00 | 0.00 | 51 | 1014.2 |
| 20260504021452 | 50 | 300 | 0.9 | 1.7 | 0.00 | 0.00 | 0.00 | 51 | 1014.2 |
| 20260504014452 | 51 | 293 | 0.9 | 2.6 | 0.00 | 0.00 | 0.00 | 51 | 1014.2 |
| 20260504012953 | 51 | 282 | 0.0 | 0.9 | 0.00 | 0.00 | 0.00 | 51 | 1014.0 |
| 20260504011453 | 52 | 290 | 0.9 | 2.6 | 0.00 | 0.00 | 0.00 | 49 | 1013.9 |
| 20260504004452 | 53 | 295 | 0.0 | 1.7 | 0.00 | 0.00 | 0.00 | 48 | 1013.6 |
| 20260504002953 | 53 | 293 | 0.9 | 1.7 | 0.00 | 0.00 | 0.00 | 46 | 1013.5 |
| 20260503235956 | 55 | 302 | 0.9 | 1.7 | 0.00 | 0.00 | 0.00 | 44 | 1013.1 |
| 20260503232953 | 57 | 339 | 1.7 | 5.2 | 0.00 | 0.00 | 0.00 | 40 | 1012.9 |
| 20260503231452 | 57 | 338 | 0.9 | 2.6 | 0.00 | 0.00 | 0.00 | 42 | 1012.9 |
| 20260503221452 | 58 | 356 | 1.7 | 7.8 | 0.00 | 0.00 | 0.00 | 39 | 1012.8 |
| 20260503214453 | 59 | 59 | 2.6 | 7.0 | 0.00 | 0.00 | 0.00 | 39 | 1012.8 |
| 20260503211453 | 59 | 348 | 2.6 | 12.2 | 0.00 | 0.00 | 0.00 | 38 | 1012.7 |
| 20260503205956 | 59 | 277 | 3.5 | 12.2 | 0.00 | 0.00 | 0.00 | 35 | 1012.8 |
| 20260503204452 | 58 | 335 | 3.5 | 15.6 | 0.00 | 0.00 | 0.00 | 37 | 1012.8 |
| 20260503202953 | 59 | 338 | 2.6 | 8.7 | 0.00 | 0.00 | 0.00 | 38 | 1012.8 |
| 20260503201452 | 58 | 311 | 3.5 | 11.3 | 0.00 | 0.00 | 0.00 | 37 | 1013.0 |
| 20260503195956 | 57 | 46 | 3.5 | 12.2 | 0.00 | 0.00 | 0.00 | 42 | 1013.2 |
| 20260503194453 | 57 | 350 | 4.3 | 12.2 | 0.00 | 0.00 | 0.00 | 40 | 1013.4 |
| 20260503192952 | 57 | 17 | 4.3 | 10.4 | 0.00 | 0.00 | 0.00 | 40 | 1013.4 |
| 20260503191452 | 56 | 40 | 4.3 | 13.0 | 0.00 | 0.00 | 0.00 | 41 | 1013.6 |
| 20260503185956 | 56 | 34 | 4.3 | 10.4 | 0.00 | 0.00 | 0.00 | 41 | 1013.7 |
| 20260503184452 | 56 | 359 | 3.5 | 9.6 | 0.00 | 0.00 | 0.00 | 42 | 1013.9 |
| 20260503182952 | 55 | 314 | 4.3 | 13.0 | 0.00 | 0.00 | 0.00 | 44 | 1014.0 |
| 20260503175958 | 54 | 49 | 4.3 | 16.5 | 0.00 | 0.00 | 0.00 | 41 | 1014.1 |
| 20260503174454 | 54 | 62 | 3.5 | 13.0 | 0.00 | 0.00 | 0.00 | 47 | 1014.2 |
| 20260503172953 | 53 | 7 | 4.3 | 14.8 | 0.00 | 0.00 | 0.00 | 43 | 1014.3 |